AirNav   Free Bose QuietComfort 20
 
 253 users online  

01K Caldwell Municipal Airport
Caldwell, Kansas, USA

GOING TO CALDWELL?


FAA INFORMATION EFFECTIVE 05 DECEMBER 2019

Location

FAA Identifier: 01K
Lat/Long: 37-02-11.8000N 097-35-08.0000W
37-02.196667N 097-35.133333W
37.0366111,-97.5855556
(estimated)
Elevation: 1157 ft. / 352.7 m (surveyed)
Variation: 07E (1985)
From city: 1 mile E of CALDWELL, KS
Time zone: UTC -6 (UTC -5 during Daylight Saving Time)
Zip code: 67022

Airport Operations

Airport use: Open to the public
Activation date: 12/1945
Control tower: no
ARTCC: KANSAS CITY CENTER
FSS: WICHITA FLIGHT SERVICE STATION
NOTAMs facility: ICT (NOTAM-D service available)
Attendance: UNATNDD
Wind indicator: lighted
Segmented circle: no
Landing fee: no, LNDG FEE FOR COMMERCIAL USERS ONLY.

Airport Communications

CTAF: 122.9
WX AWOS-3 at EGT (20 nm NE): 118.875 (620-326-2470)

Nearby radio navigation aids

VOR radial/distance  VOR name  Freq  Var
PERr304/26.8PIONEER VORTAC113.2006E
ANYr098/29.0ANTHONY VORTAC112.9007E

Airport Services

Parking: tiedowns
Airframe service: NONE
Powerplant service: NONE
Bottled oxygen: NONE
Bulk oxygen: NONE

Runway Information

Runway 17/35

Dimensions: 2460 x 110 ft. / 750 x 34 m
Surface: turf, in good condition
RUNWAY 17  RUNWAY 35
Latitude: 37-02.400143N37-01.994667N
Longitude: 097-35.131850W097-35.134923W
Elevation: 1157.0 ft.1135.0 ft.
Traffic pattern: leftleft
Runway heading: 173 magnetic, 180 true353 magnetic, 000 true
Obstructions: 13 ft. road, 40 ft. from runway, 3:1 slope to clear
COUNTRY ROAD - TFC DURING HARVEST.
15 ft. road, 180 ft. from runway, 12:1 slope to clear
PLINE, HWY & PLINE SUPPORT 1/8 MILE S OF ROAD.

Airport Ownership and Management from official FAA records

Ownership: Publicly-owned
Owner: CITY OF CALDWELL
14 W. CENTRAL
CALDWELL, KS 67022
Phone 620-845-6514
Manager: MARC MARCRUM
14 W. CENTRAL
CALDWELL, KS 67022
Phone 620-845-6676

Airport Operational Statistics

Aircraft based on the field: 1
Single engine airplanes: 1
    
Aircraft operations: avg 75/month *
56% local general aviation
44% transient general aviation
* for 12-month period ending 27 August 2018

Additional Remarks

A30A-17 3 FT DITCH OFF END OF RWY.
18 IN BY 140 FT METAL CULVERT IN DITCH E OF RWY ON TWY.
WIND FARM 5 S OF ARPT.
FOR CD CTC WICHITA APCH AT 316-350-1520.

Instrument Procedures

There are no published instrument procedures at 01K.

Some nearby airports with instrument procedures:

O53 - Medford Municipal Airport (17 nm SW)
KEGT - Wellington Municipal Airport (20 nm NE)
KBKN - Blackwell-Tonkawa Municipal Airport (21 nm SE)
KANY - Anthony Municipal Airport (25 nm W)
8K2 - Harper Municipal Airport (26 nm NW)
 
Loc | Ops | Rwys | IFR | FBO | Links
Com | Nav | Svcs | Stats | Notes

Kansas City Aviation Department
 
Area around 01K (Caldwell Municipal Airport)
 
Road maps at: MapQuest Bing Google
 
Aerial photo
WARNING: Photo may not be current or correct
Aerial photo of 01K (Caldwell Municipal Airport)
Photo by Von Rothenberger
Photo taken 03-Sep-2010

Do you have a better or more recent aerial photo of Caldwell Municipal Airport that you would like to share? If so, please send us your photo.

 
Sectional chart

 
Airport distance calculator
Flying to Caldwell Municipal Airport? Find the distance to fly.

From to 01K

Sunrise and sunset
Times for 15-Dec-2019
 Local
(UTC-6)
 Zulu
(UTC)
Morning civil twilight07:0813:08
Sunrise07:3713:37
Sunset17:1423:14
Evening civil twilight17:4323:43

Current date and time
Zulu (UTC)  15-Dec-2019 11:09:50
Local (UTC-6)  15-Dec-2019 05:09:50
 
METAR
KBKN 
21nm SE 
151055Z AUTO 06015G21KT 9SM 00/M01 A2987 RMK AO2
KWLD 
28nm E 
151054Z AUTO 07012KT 9SM OVC055 M01/M04 A2988 RMK AO2 SLP125 T10111044
KPNC 
30nm SE 
151053Z AUTO 07013G18KT 10SM OVC050 01/M03 A2985 RMK AO2 SLP111 T00061028
KICT 
38nm N 
151053Z 05012KT 6SM -SN FEW048 OVC060 M02/M06 A2988 RMK AO2 SNB17 SLP128 P0000 T10221061
KIAB 
38nm NE 
151057Z AUTO 06013KT 10SM -UP OVC060 M02/M06 A2987 RMK AO2 UPB56 SLP129 $
KWDG 
41nm S 
151055Z AUTO 06012KT 5SM BR OVC010 00/M01 A2981 RMK AO2
TAF
KPNC 
30nm SE 
150520Z 1506/1606 09007KT P6SM SKC FM151200 03010KT 4SM BR OVC020 TEMPO 1514/1516 3SM -FZRA BR OVC004 FM151800 02010KT 6SM -RA BR OVC010 FM152200 36010KT 6SM BR OVC010
NOTAMs
Click for the latest NOTAMs
NOTAMs are issued by the DoD/FAA and will open in a separate window not controlled by AirNav.

 

 
 

Would you like to see your business listed on this page?

 If your business provides an interesting product or service to pilots, flight crews, aircraft, or users of the Caldwell Municipal Airport, you should consider listing it here.  To start the listing process, click on the button below
 
Add a business
 

Other Pages about Caldwell Municipal Airport

Update a link
 
Copyright © AirNav, LLC. All rights reserved. Privacy Policy  Contact